STARLINK-2507, 48316

Orbit data source: Space-Track

STARLINK-2507, 48316 is a payload satellite owned by SpaceX/Seattle (US) in LEO that was launched on Thu, 29 Apr 2021 UTC via an FALCON 9 launch vehicle from the Air Force Eastern Test Range (AFETR). Payload-class satellites include a variety of spacecraft equipped with specific instruments for various scientific and technological missions. These include communications satellites like Starlink; space stations such as the ISS; scientific satellites like the Hubble; Earth observation satellites from companies like Planet Labs, Umbra, and HawkEye 360; GPS; miniature CubeSats for education and research; and military/defense satellites.

Loading next visibility...
Identifier
48316, 2021-036AS
Orbit
LEO
Country
Flag of USUS
Related business
Manufacturer
SpaceX/Seattle
Mission
Operational Commercial Communications
Bus & Motor
STARLINK, Unknown motor
Mass
260 kg wet, ~248 kg dry
Launch date (UTC)
2021-04-29 (5 years ago)
Launch vehicle
FALCON 9
Launch site
Air Force Eastern Test Range (AFETR)
Object type
Payload
Rocket body
Debris
Shape & HBR
Box + 1 Pan, 10.1 m
Radar Cross Section
13.562 m², Large (>1 m²)

Expand to show TLE details & history
Last TLE update: 17 hours ago

TLE from 17 hours ago
0 STARLINK-2507
1 48316U 21036AS  26036.95748962 -.00001319  00000-0 -69698-4 0  9999
2 48316  53.0549 234.0668 0001149  98.6498 261.4621 15.06389307263384
Epoch: 2026-02-05T22:58Z
TLE epoch observation values (Epoch: 2026-02-05T22:58:47.103Z)
Latitude
-0.00002°
Longitude
113.26826°
Altitude
548.242 km
Speed
7.589 km/s
True Right ascension
15h 36m 16s
True Declination
0° 00' 00"
Sunlit
Object was in daylight at epoch
Visualization orbit readout
Latitude
Unknown
Longitude
Unknown
Altitude
Unknown
Speed
Unknown
Apparent Right ascension
Unknown
Apparent Declination
Unknown
Sunlit
N/A
Visualization observer readout
Local Sidereal Time
18:03:57
Azimuth
Unknown
Elevation
Unknown
Doppler factor
Unknown
Orbital elements
Apogee altitude
548.311 km
Perigee altitude
546.719 km
Semi-major axis
6,925.652 km
Eccentricity
0.00011
Inclination
53.0549°
RAAN
234.0668°
Arg. of periapsis
98.6498°
True anomaly
261.44908°
Mean anomaly
261.4621°
Eccentric anomaly
261.45559°
Mean motion
3.76576 °/min
Orbital period
95.6 mins
BSTAR
-0.000069698
Loading maneuver chart data...
Computing Atmospheric mass density...
Loading historical data...
Loading historical data...
Loading historical data...
Loading historical data...
Loading historical data...
Loading historical data...
Loading historical data...

Documentation

Showing up to 5 results
|